SBIRS GEO-4 (USA 273)

Last updated on Sat Aug 15 2026 00:03:00 GMT+0000 (Coordinated Universal Time)

1 41937U 17004A 26226.57230275 .00000113 00000+0 00000+0 0 9998 2 41937 2.3554 44.6763 0002513 87.1471 59.3053 1.00270598 35188
UTC large
Height (km)
Speed (km/s)
/
Latitude / Longitude
Inclination (degrees)
Orbital Period (minutes)
Azimuth
Elevation
Range (km)
Doppler Factor

Next 0 passes for location: London (51.5072 / 0.1276)

No passes found over London.
SBIRS GEO-4 (USA 273)